Location: Great Falls
(47.5000°N, 111.3000°W)
Time: 06:16:45
(UTC-07:00)

Tiangong 2 - Visible Passes

Search period start: 17 December 2018 00:00
Search period end: 27 December 2018 00:00
Orbit: 383 x 391 km, 42.8° (Epoch: 17 December)

Date Brightness Start Highest point End Pass type
(mag) Time Alt. Az. Time Alt. Az. Time Alt. Az.
20 Dec 3.6 18:14:33 10° SSE 18:15:29 11° SSE 18:15:55 11° SE visible
21 Dec 3.2 18:50:28 10° SW 18:52:11 20° S 18:52:11 20° S visible
22 Dec 3.3 17:52:17 10° SSW 17:54:23 16° SSE 17:56:09 11° ESE visible
22 Dec 4.2 19:27:46 10° WSW 19:28:24 14° SW 19:28:24 14° SW visible
23 Dec 2.4 18:29:11 10° SW 18:31:58 28° SSE 18:32:21 27° SSE visible
24 Dec 3.0 17:30:44 10° SW 17:33:18 22° SSE 17:35:51 10° ESE visible
24 Dec 3.1 19:06:44 10° WSW 19:08:32 25° SW 19:08:32 25° SW visible
25 Dec 2.4 18:08:03 10° WSW 18:10:57 33° S 18:12:28 21° SE visible
25 Dec 4.6 19:44:34 10° WSW 19:44:44 11° WSW 19:44:44 11° WSW visible
26 Dec 2.4 18:45:44 10° WSW 18:48:39 32° S 18:48:42 32° S visible
